Waarnemingen

Advertentie
Mijn weer
Koblenz/Falkensteinkaserne, Duitsland (10516): temperatuur & dauwpunt: 17.07.2017 08:00:00 - 23.07.2017 08:00:00 (CEST)Koblenz/Falkensteinkaserne, Duitsland (10516): windsnelheid & windstoten: 17.07.2017 08:00:00 - 23.07.2017 08:00:00 (CEST)Koblenz/Falkensteinkaserne, Duitsland (10516): windrichting: 17.07.2017 08:00:00 - 23.07.2017 08:00:00 (CEST)Koblenz/Falkensteinkaserne, Duitsland (10516): luchtdruk: 17.07.2017 08:00:00 - 23.07.2017 08:00:00 (CEST)Koblenz/Falkensteinkaserne, Duitsland (10516): zicht: 17.07.2017 08:00:00 - 23.07.2017 08:00:00 (CEST)
Datum & Tijd tt [°C] td [°C] ff [km/u] ff [kn] fx [km/u] fx [kn] dd ppp [hPa] vv [km]
23.07.2017 08:00:00 16,8 13,3 14 8 - - ZW 1015,0 -
23.07.2017 07:00:00 17,0 13,8 11 6 - - ZZW 1014,5 -
23.07.2017 06:00:00 16,9 14,1 7 4 - - ZZW 1013,8 -
23.07.2017 05:00:00 17,4 14,5 7 4 - - Z 1013,5 -
23.07.2017 04:00:00 17,5 15,4 7 4 - - ZZW 1013,3 -
23.07.2017 03:00:00 17,9 16,1 7 4 - - N 1012,8 -
23.07.2017 02:00:00 17,8 16,1 4 2 - - WNW 1012,7 -
23.07.2017 01:00:00 18,1 16,7 4 2 65 35 N 1012,4 -
23.07.2017 00:00:00 20,8 16,9 7 4 - - ZZW 1011,2 -
22.07.2017 23:00:00 21,2 16,6 7 4 - - OZO 1011,2 -
22.07.2017 22:00:00 22,2 16,3 7 4 - - OZO 1011,4 -
22.07.2017 21:00:00 24,0 16,4 7 4 - - N 1011,2 -
22.07.2017 20:00:00 24,0 16,8 7 4 - - ZO 1011,4 -
22.07.2017 19:00:00 25,3 16,4 11 6 - - OZO 1011,3 -
22.07.2017 18:00:00 26,4 15,6 11 6 - - ZZO 1011,6 -
22.07.2017 17:00:00 26,6 16,5 7 4 - - ZZO 1011,5 -
22.07.2017 16:00:00 26,5 16,0 11 6 - - ZO 1011,7 -
22.07.2017 15:00:00 25,2 17,0 11 6 - - ZO 1012,5 -
22.07.2017 14:00:00 24,9 16,5 7 4 - - OZO 1012,6 -
22.07.2017 13:00:00 25,1 16,4 7 4 - - Z 1012,7 -
22.07.2017 12:00:00 23,8 15,3 7 4 - - O 1013,0 -
22.07.2017 11:00:00 23,4 16,9 7 4 - - N 1013,0 -
22.07.2017 10:00:00 21,2 16,9 7 4 - - ZO 1013,1 -
22.07.2017 09:00:00 19,6 16,9 7 4 - - N 1013,0 -
22.07.2017 08:00:00 19,1 17,3 4 2 - - ZO 1012,7 -
22.07.2017 07:00:00 18,3 17,1 4 2 - - N 1012,2 -
22.07.2017 06:00:00 18,3 17,0 4 2 - - N 1012,1 -
22.07.2017 05:00:00 18,4 17,3 7 4 - - N 1011,7 -
22.07.2017 04:00:00 18,6 17,1 7 4 - - ONO 1011,5 -
22.07.2017 03:00:00 19,0 17,3 4 2 - - NNO 1012,3 -
22.07.2017 02:00:00 18,7 16,6 11 6 - - ZZO 1012,3 -
22.07.2017 01:00:00 22,6 13,2 4 2 - - N 1010,3 -
22.07.2017 00:00:00 23,0 12,5 7 4 - - ZO 1010,1 -
21.07.2017 23:00:00 23,1 12,6 7 4 - - ZZO 1010,2 -
21.07.2017 22:00:00 24,1 12,4 7 4 - - NO 1010,4 -
21.07.2017 21:00:00 25,6 12,4 7 4 - - NO 1010,3 -
21.07.2017 20:00:00 25,9 11,6 11 6 - - ONO 1010,5 -
21.07.2017 19:00:00 26,1 11,4 7 4 - - O 1010,5 40
21.07.2017 18:00:00 26,8 11,7 11 6 - - OZO 1011,1 40
21.07.2017 17:00:00 26,4 10,8 7 4 - - ZW 1011,7 40
21.07.2017 16:00:00 24,9 10,5 7 4 - - NO 1012,4 40
21.07.2017 15:00:00 24,9 10,1 7 4 - - W 1013,1 40
21.07.2017 14:00:00 24,7 9,8 7 4 - - ZZO 1013,5 40
21.07.2017 13:00:00 23,2 9,6 7 4 - - OZO 1014,2 40
21.07.2017 12:00:00 21,7 9,3 7 4 - - N 1014,6 40
21.07.2017 11:00:00 20,8 10,0 7 4 - - ONO 1015,2 40
21.07.2017 10:00:00 19,9 8,9 7 4 - - NO 1015,5 40
21.07.2017 09:00:00 18,5 9,5 7 4 - - NNO 1015,6 40
21.07.2017 08:00:00 17,0 12,2 4 2 - - N 1015,6 40
21.07.2017 07:00:00 15,5 12,2 7 4 - - N 1015,8 40
21.07.2017 06:00:00 14,8 11,3 0 0 - - N 1015,4 -
21.07.2017 05:00:00 16,0 11,0 4 2 - - NW 1015,3 -
21.07.2017 04:00:00 17,0 10,7 7 4 - - NW 1015,1 -
21.07.2017 03:00:00 18,1 11,6 7 4 - - NNW 1015,0 -
21.07.2017 02:00:00 19,2 12,2 11 6 - - NNW 1014,7 -
21.07.2017 01:00:00 19,2 13,4 7 4 - - NW 1014,6 -
21.07.2017 00:00:00 20,0 13,4 7 4 - - NNW 1014,2 -
20.07.2017 23:00:00 21,2 13,6 14 8 - - NNW 1013,2 -
20.07.2017 22:00:00 22,5 12,3 4 2 - - N 1012,3 -
20.07.2017 21:00:00 23,6 11,7 7 4 - - W 1011,3 30
20.07.2017 20:00:00 25,4 11,2 14 8 - - WZW 1010,5 30
20.07.2017 19:00:00 25,8 10,4 14 8 - - WZW 1010,3 30
20.07.2017 18:00:00 26,5 11,9 11 6 - - WZW 1009,9 30
20.07.2017 17:00:00 26,1 13,0 14 8 - - ZW 1009,9 30
20.07.2017 16:00:00 26,4 13,5 11 6 - - ZW 1010,2 30
20.07.2017 15:00:00 26,2 13,2 18 10 - - ZW 1010,1 30
20.07.2017 14:00:00 24,8 14,7 14 8 - - ZW 1010,8 30
20.07.2017 13:00:00 23,5 16,7 11 6 - - Z 1010,7 25
20.07.2017 12:00:00 21,9 17,2 11 6 - - ZZW 1011,0 20
20.07.2017 11:00:00 21,6 17,8 7 4 - - ZZW 1010,8 20
20.07.2017 10:00:00 20,8 18,3 4 2 - - N 1010,7 20
20.07.2017 09:00:00 20,1 18,2 4 2 - - N 1010,6 30
20.07.2017 08:00:00 19,6 18,1 7 4 - - ZZW 1010,2 30
20.07.2017 07:00:00 19,6 18,1 4 2 - - N 1010,3 15
20.07.2017 06:00:00 19,8 17,9 4 2 - - NNW 1009,6 -
20.07.2017 05:00:00 20,3 17,9 7 4 - - O 1009,1 -
20.07.2017 04:00:00 20,9 17,3 4 2 - - N 1008,9 -
20.07.2017 03:00:00 20,9 16,7 4 2 - - N 1009,8 -
20.07.2017 02:00:00 21,4 16,8 4 2 - - NNW 1010,0 -
20.07.2017 01:00:00 22,0 16,6 4 2 - - OZO 1009,5 -
20.07.2017 00:00:00 21,7 16,1 4 2 - - ZO 1009,7 -
19.07.2017 23:00:00 22,8 16,1 7 4 - - ZO 1009,7 -
19.07.2017 22:00:00 23,7 16,1 7 4 - - OZO 1009,9 -
19.07.2017 21:00:00 24,8 15,9 4 2 - - N 1009,3 30
19.07.2017 20:00:00 24,9 15,9 7 4 - - N 1009,8 30
19.07.2017 19:00:00 24,6 15,0 11 6 - - N 1010,2 30
19.07.2017 18:00:00 24,7 14,4 22 12 - - N 1011,1 30
19.07.2017 17:00:00 30,6 14,9 14 8 - - WZW 1009,3 30
19.07.2017 16:00:00 33,5 15,1 11 6 - - ZW 1008,5 30
19.07.2017 15:00:00 33,0 14,6 11 6 - - ZZO 1009,2 30
19.07.2017 14:00:00 31,8 15,0 11 6 - - ZO 1009,4 30
19.07.2017 13:00:00 30,6 14,5 11 6 - - Z 1010,2 30
19.07.2017 12:00:00 29,3 14,5 11 6 - - ZO 1010,7 30
19.07.2017 11:00:00 27,1 16,2 11 6 - - OZO 1011,1 30
19.07.2017 10:00:00 25,4 15,6 7 4 - - ZO 1012,1 30
19.07.2017 09:00:00 23,2 15,1 11 6 - - ZZO 1012,2 30
19.07.2017 08:00:00 21,8 15,1 7 4 - - ZZO 1012,3 30
19.07.2017 07:00:00 20,1 15,7 7 4 - - N 1013,1 30
19.07.2017 06:00:00 20,3 15,4 4 2 - - ZZO 1012,7 -
19.07.2017 05:00:00 20,8 15,6 7 4 - - ZZO 1012,8 -
19.07.2017 04:00:00 21,1 15,8 4 2 - - N 1012,9 -
19.07.2017 03:00:00 21,1 15,6 4 2 - - N 1013,2 -
19.07.2017 02:00:00 22,5 15,3 4 2 - - N 1013,5 -
19.07.2017 01:00:00 23,3 15,5 4 2 - - N 1013,6 -
19.07.2017 00:00:00 24,8 14,7 7 4 - - ZZO 1013,8 -
18.07.2017 23:00:00 25,7 14,6 7 4 - - ZO 1014,1 -
18.07.2017 22:00:00 26,4 14,7 7 4 - - O 1014,0 -
18.07.2017 21:00:00 27,8 15,0 7 4 - - O 1014,1 40
18.07.2017 20:00:00 28,8 14,6 11 6 - - O 1013,9 30
18.07.2017 19:00:00 29,2 14,7 11 6 - - O 1014,1 30
18.07.2017 18:00:00 29,3 14,7 11 6 - - ONO 1014,5 30
18.07.2017 17:00:00 29,1 15,0 7 4 - - O 1015,3 35
18.07.2017 16:00:00 28,6 14,5 11 6 - - ONO 1016,1 35
18.07.2017 15:00:00 28,2 14,6 7 4 - - ONO 1016,7 35
18.07.2017 14:00:00 26,9 14,3 11 6 - - O 1017,4 35
18.07.2017 13:00:00 26,3 15,1 7 4 - - O 1018,2 35
18.07.2017 12:00:00 25,1 15,1 4 2 - - NO 1018,6 35
18.07.2017 11:00:00 23,7 14,6 4 2 - - O 1019,2 35
18.07.2017 10:00:00 21,7 13,4 7 4 - - ZO 1019,8 30
18.07.2017 09:00:00 18,9 13,2 4 2 - - WZW 1020,3 30
18.07.2017 08:00:00 17,0 14,1 4 2 - - NNW 1020,7 20
18.07.2017 07:00:00 16,1 14,1 4 2 - - NNW 1020,9 15
18.07.2017 06:00:00 15,3 14,4 4 2 - - N 1020,8 -
18.07.2017 05:00:00 15,5 14,5 4 2 - - N 1020,7 -
18.07.2017 04:00:00 16,0 14,7 4 2 - - N 1021,0 -
18.07.2017 03:00:00 16,3 14,5 4 2 - - N 1021,3 -
18.07.2017 02:00:00 17,0 14,6 4 2 - - N 1021,4 -
18.07.2017 01:00:00 18,0 15,1 4 2 - - N 1021,6 -
18.07.2017 00:00:00 18,7 14,9 4 2 - - W 1021,5 -
17.07.2017 23:00:00 20,4 14,9 7 4 - - N 1021,4 -
17.07.2017 22:00:00 21,9 15,0 7 4 - - N 1021,1 -
17.07.2017 21:00:00 22,9 14,8 11 6 - - N 1020,7 30
17.07.2017 20:00:00 23,7 15,8 14 8 - - N 1020,6 30
17.07.2017 19:00:00 24,7 14,3 11 6 - - N 1020,4 30
17.07.2017 18:00:00 24,8 15,3 14 8 - - N 1020,7 35
17.07.2017 17:00:00 24,0 15,3 11 6 - - NNW 1021,1 30
17.07.2017 16:00:00 23,0 15,5 11 6 - - WNW 1021,6 30
17.07.2017 15:00:00 22,8 15,8 14 8 - - WNW 1021,9 25
17.07.2017 14:00:00 22,9 16,2 11 6 - - NW 1021,8 20
17.07.2017 13:00:00 23,1 15,3 11 6 - - NNW 1021,6 25
17.07.2017 12:00:00 23,6 15,0 7 4 - - O 1021,5 25
17.07.2017 11:00:00 22,7 15,1 4 2 - - O 1022,0 25
17.07.2017 10:00:00 20,9 15,2 4 2 - - Z 1022,1 20
17.07.2017 09:00:00 19,6 15,2 4 2 - - N 1022,4 20
17.07.2017 08:00:00 18,1 15,4 7 4 - - N 1022,3 20

tt = temperatuur
td = dauwpunt
ff = windsnelheid
fx = windstoten
dd = windrichting
ppp = luchtdruk
vv = zicht

Weerstations in de omgeving